| time (UTC) | temp F | wind direction | speed MPH | gust MPH | rain 1hr in | rain 24hr in | rain mn in | humidity % | barometer mb |
| 20260509173754 | 57 | 225 | 3.0 | 8.0 | 0.00 | 0.37 | 0.37 | 86 | 1402.4 |
| 20260509173254 | 57 | 242 | 2.0 | 8.0 | 0.00 | 0.37 | 0.37 | 88 | 1402.2 |
| 20260509172755 | 56 | 195 | 3.0 | 9.0 | 0.00 | 0.37 | 0.37 | 89 | 1402.2 |
| 20260509172254 | 56 | 209 | 2.0 | 9.0 | 0.00 | 0.37 | 0.37 | 89 | 1402.2 |
| 20260509171755 | 56 | 178 | 2.0 | 7.0 | 0.01 | 0.37 | 0.37 | 91 | 1402.2 |
| 20260509171255 | 55 | 211 | 1.0 | 5.0 | 0.01 | 0.37 | 0.37 | 91 | 1402.2 |
| 20260509170755 | 55 | 188 | 1.0 | 5.0 | 0.02 | 0.37 | 0.37 | 91 | 1402.2 |
| 20260509170255 | 55 | 207 | 2.0 | 4.0 | 0.02 | 0.37 | 0.37 | 92 | 1402.4 |
| 20260509165755 | 55 | 207 | 2.0 | 4.0 | 0.02 | 0.37 | 0.37 | 92 | 1402.2 |
| 20260509165254 | 54 | 227 | 2.0 | 5.0 | 0.02 | 0.37 | 0.37 | 92 | 1402.1 |
| 20260509164753 | 54 | 215 | 1.0 | 5.0 | 0.02 | 0.37 | 0.37 | 92 | 1402.1 |
| 20260509164254 | 54 | 139 | 2.0 | 6.0 | 0.02 | 0.37 | 0.37 | 92 | 1402.0 |
| 20260509163752 | 54 | 148 | 2.0 | 6.0 | 0.02 | 0.37 | 0.37 | 92 | 1402.0 |
| 20260509163252 | 54 | 154 | 2.0 | 8.0 | 0.02 | 0.37 | 0.37 | 92 | 1402.1 |
| 20260509162752 | 54 | 192 | 3.0 | 8.0 | 0.02 | 0.37 | 0.37 | 92 | 1402.0 |
| 20260509162250 | 54 | 153 | 3.0 | 9.0 | 0.02 | 0.37 | 0.37 | 93 | 1402.0 |
| 20260509161750 | 54 | 135 | 2.0 | 9.0 | 0.01 | 0.36 | 0.36 | 93 | 1402.1 |
| 20260509161250 | 54 | 193 | 2.0 | 5.0 | 0.01 | 0.36 | 0.36 | 93 | 1402.2 |
| 20260509160750 | 54 | 190 | 2.0 | 8.0 | 0.00 | 0.35 | 0.35 | 93 | 1402.2 |
| 20260509160251 | 54 | 217 | 2.0 | 8.0 | 0.00 | 0.35 | 0.35 | 93 | 1402.4 |
| 20260509155250 | 54 | 146 | 4.0 | 11.0 | 0.01 | 0.35 | 0.35 | 93 | 1402.2 |
| 20260509154750 | 54 | 157 | 4.0 | 11.0 | 0.01 | 0.35 | 0.35 | 94 | 1402.2 |
| 20260509154250 | 54 | 144 | 2.0 | 6.0 | 0.01 | 0.35 | 0.35 | 94 | 1402.4 |
| 20260509153751 | 54 | 163 | 2.0 | 8.0 | 0.02 | 0.35 | 0.35 | 94 | 1402.4 |
| 20260509153251 | 54 | 198 | 2.0 | 8.0 | 0.02 | 0.35 | 0.35 | 94 | 1402.5 |
| 20260509152752 | 53 | 203 | 2.0 | 7.0 | 0.02 | 0.35 | 0.35 | 94 | 1402.8 |
| 20260509152252 | 53 | 148 | 2.0 | 7.0 | 0.02 | 0.35 | 0.35 | 94 | 1402.8 |
| 20260509151247 | 53 | 148 | 2.0 | 7.0 | 0.03 | 0.35 | 0.35 | 94 | 1402.9 |
| 20260509150748 | 53 | 163 | 1.0 | 7.0 | 0.03 | 0.35 | 0.35 | 94 | 1402.9 |
| 20260509150247 | 53 | 162 | 1.0 | 5.0 | 0.03 | 0.35 | 0.35 | 94 | 1402.9 |
| 20260509145748 | 53 | 156 | 2.0 | 5.0 | 0.03 | 0.34 | 0.34 | 94 | 1402.9 |
| 20260509144748 | 53 | 139 | 2.0 | 6.0 | 0.03 | 0.34 | 0.34 | 94 | 1402.9 |
| 20260509144246 | 53 | 211 | 2.0 | 6.0 | 0.04 | 0.34 | 0.34 | 94 | 1402.9 |
| 20260509143747 | 53 | 174 | 2.0 | 7.0 | 0.03 | 0.33 | 0.33 | 94 | 1402.8 |
| 20260509143243 | 52 | 178 | 2.0 | 7.0 | 0.04 | 0.33 | 0.33 | 94 | 1402.9 |
| 20260509142742 | 52 | 198 | 2.0 | 5.0 | 0.04 | 0.33 | 0.33 | 94 | 1402.9 |
| 20260509141742 | 52 | 162 | 2.0 | 7.0 | 0.05 | 0.33 | 0.33 | 94 | 1402.9 |
| 20260509140242 | 52 | 149 | 2.0 | 6.0 | 0.06 | 0.32 | 0.32 | 94 | 1403.0 |
| 20260509135744 | 52 | 167 | 2.0 | 7.0 | 0.06 | 0.31 | 0.31 | 94 | 1403.2 |
| 20260509135244 | 52 | 193 | 2.0 | 7.0 | 0.06 | 0.31 | 0.31 | 94 | 1403.2 |
| 20260509134241 | 52 | 149 | 2.0 | 7.0 | 0.07 | 0.30 | 0.30 | 94 | 1403.0 |
| 20260509133240 | 52 | 155 | 3.0 | 11.0 | 0.08 | 0.29 | 0.29 | 94 | 1403.2 |
| 20260509132736 | 52 | 218 | 3.0 | 11.0 | 0.09 | 0.29 | 0.29 | 94 | 1403.3 |
| 20260509132238 | 52 | 181 | 2.0 | 9.0 | 0.10 | 0.29 | 0.29 | 95 | 1403.3 |
| 20260509131237 | 52 | 155 | 2.0 | 5.0 | 0.10 | 0.27 | 0.27 | 94 | 1403.4 |
| 20260509130738 | 52 | 155 | 2.0 | 5.0 | 0.11 | 0.27 | 0.27 | 94 | 1403.4 |
| 20260509130234 | 52 | 147 | 2.0 | 5.0 | 0.10 | 0.26 | 0.26 | 94 | 1403.4 |
| 20260509125733 | 51 | 146 | 1.0 | 5.0 | 0.10 | 0.25 | 0.25 | 94 | 1403.6 |
| 20260509124232 | 51 | 170 | 1.0 | 7.0 | 0.10 | 0.23 | 0.23 | 94 | 1403.6 |
| 20260509123732 | 51 | 161 | 1.0 | 4.0 | 0.09 | 0.22 | 0.22 | 94 | 1403.6 |
| 20260509123232 | 51 | 191 | 1.0 | 6.0 | 0.08 | 0.21 | 0.21 | 94 | 1403.6 |
| 20260509122733 | 51 | 173 | 1.0 | 6.0 | 0.07 | 0.20 | 0.20 | 94 | 1403.6 |
| 20260509122227 | 51 | 208 | 1.0 | 7.0 | 0.06 | 0.19 | 0.19 | 94 | 1403.6 |
| 20260509121215 | 51 | 154 | 2.0 | 7.0 | 0.04 | 0.17 | 0.17 | 94 | 1403.4 |
| 20260509120203 | 51 | 203 | 1.0 | 6.0 | 0.03 | 0.15 | 0.15 | 94 | 1403.6 |
| 20260509115657 | 51 | 190 | 2.0 | 6.0 | 0.03 | 0.15 | 0.15 | 94 | 1403.4 |
| 20260509115151 | 51 | 173 | 1.0 | 5.0 | 0.03 | 0.14 | 0.14 | 94 | 1403.6 |
| 20260509114645 | 51 | 180 | 0.0 | 3.0 | 0.03 | 0.14 | 0.14 | 94 | 1403.6 |
| 20260509113632 | 51 | 160 | 1.0 | 2.0 | 0.03 | 0.13 | 0.13 | 94 | 1403.4 |
| 20260509112621 | 51 | 146 | 0.0 | 2.0 | 0.04 | 0.13 | 0.13 | 94 | 1403.3 |
| 20260509112115 | 51 | 151 | 0.0 | 1.0 | 0.04 | 0.13 | 0.13 | 94 | 1403.3 |
| 20260509111609 | 51 | 152 | 0.0 | 2.0 | 0.05 | 0.13 | 0.13 | 94 | 1403.3 |
| 20260509111103 | 51 | 150 | 0.0 | 3.0 | 0.05 | 0.13 | 0.13 | 94 | 1403.3 |
| 20260509110557 | 51 | 130 | 0.0 | 3.0 | 0.05 | 0.12 | 0.12 | 94 | 1403.2 |
| 20260509105545 | 51 | 142 | 1.0 | 4.0 | 0.05 | 0.12 | 0.12 | 93 | 1403.3 |
| 20260509104540 | 51 | 128 | 1.0 | 4.0 | 0.04 | 0.11 | 0.11 | 93 | 1403.3 |
| 20260509104036 | 51 | 162 | 1.0 | 3.0 | 0.05 | 0.11 | 0.11 | 93 | 1403.3 |
| 20260509103535 | 51 | 131 | 1.0 | 4.0 | 0.04 | 0.10 | 0.10 | 93 | 1403.4 |
| 20260509103032 | 51 | 134 | 1.0 | 4.0 | 0.04 | 0.09 | 0.10 | 93 | 1403.3 |
| 20260509102532 | 51 | 140 | 1.0 | 3.0 | 0.04 | 0.09 | 0.09 | 93 | 1403.4 |
| 20260509101531 | 51 | 146 | 0.0 | 2.0 | 0.03 | 0.08 | 0.08 | 92 | 1403.4 |
| 20260509101030 | 51 | 144 | 0.0 | 2.0 | 0.04 | 0.08 | 0.08 | 92 | 1403.4 |
| 20260509100529 | 51 | 192 | 1.0 | 4.0 | 0.04 | 0.07 | 0.07 | 92 | 1403.6 |
| 20260509100028 | 51 | 159 | 2.0 | 6.0 | 0.04 | 0.07 | 0.07 | 92 | 1403.4 |
| 20260509095528 | 51 | 150 | 3.0 | 7.0 | 0.05 | 0.07 | 0.07 | 91 | 1403.4 |
| 20260509095029 | 51 | 134 | 2.0 | 7.0 | 0.06 | 0.07 | 0.07 | 91 | 1403.4 |
| 20260509094029 | 51 | 147 | 1.0 | 6.0 | 0.06 | 0.06 | 0.06 | 90 | 1403.7 |
| 20260509093527 | 51 | 161 | 1.0 | 6.0 | 0.06 | 0.06 | 0.06 | 90 | 1403.8 |
| 20260509093028 | 52 | 153 | 2.0 | 7.0 | 0.05 | 0.05 | 0.05 | 89 | 1404.0 |
| 20260509092528 | 52 | 188 | 2.0 | 7.0 | 0.05 | 0.05 | 0.05 | 89 | 1404.0 |
| 20260509091522 | 52 | 227 | 3.0 | 8.0 | 0.05 | 0.05 | 0.05 | 87 | 1404.1 |
| 20260509091016 | 52 | 225 | 3.0 | 11.0 | 0.04 | 0.04 | 0.04 | 86 | 1404.1 |
| 20260509090511 | 53 | 206 | 4.0 | 11.0 | 0.03 | 0.03 | 0.03 | 86 | 1404.1 |
| 20260509090005 | 53 | 196 | 4.0 | 10.0 | 0.03 | 0.03 | 0.03 | 85 | 1404.1 |
| 20260509085459 | 53 | 253 | 6.0 | 13.0 | 0.02 | 0.02 | 0.02 | 84 | 1404.1 |
| 20260509084953 | 54 | 236 | 8.0 | 20.0 | 0.01 | 0.01 | 0.01 | 82 | 1404.1 |
| 20260509084447 | 54 | 304 | 10.0 | 20.0 | 0.01 | 0.01 | 0.01 | 81 | 1404.0 |
| 20260509083435 | 51 | 262 | 4.0 | 17.0 | 0.00 | 0.00 | 0.00 | 90 | 1403.7 |
| 20260509082929 | 50 | 235 | 0.0 | 7.0 | 0.00 | 0.00 | 0.00 | 93 | 1403.4 |
| 20260509081411 | 49 | 322 | 0.0 | 2.0 | 0.00 | 0.00 | 0.00 | 93 | 1403.2 |
| 20260509080905 | 49 | 59 | 0.0 | 2.0 | 0.00 | 0.00 | 0.00 | 93 | 1402.8 |
| 20260509075853 | 49 | 59 | 0.0 | 2.0 | 0.00 | 0.00 | 0.00 | 92 | 1402.4 |
| 20260509075347 | 49 | 71 | 0.0 | 2.0 | 0.00 | 0.00 | 0.00 | 92 | 1402.2 |
| 20260509074841 | 49 | 80 | 1.0 | 2.0 | 0.00 | 0.00 | 0.00 | 92 | 1402.2 |
| 20260509074334 | 49 | 304 | 0.0 | 2.0 | 0.00 | 0.00 | 0.00 | 92 | 1402.2 |
| 20260509073829 | 49 | 331 | 0.0 | 0.0 | 0.00 | 0.00 | 0.00 | 92 | 1402.1 |
| 20260509072817 | 49 | 331 | 0.0 | 0.0 | 0.00 | 0.00 | 0.00 | 92 | 1402.0 |
| 20260509071805 | 49 | 331 | 0.0 | 0.0 | 0.00 | 0.00 | 0.00 | 91 | 1401.7 |
| 20260509071258 | 49 | 331 | 0.0 | 0.0 | 0.00 | 0.00 | 0.00 | 91 | 1401.7 |
| 20260509070753 | 49 | 331 | 0.0 | 0.0 | 0.00 | 0.00 | 0.00 | 91 | 1401.7 |
| 20260509065744 | 49 | 331 | 0.0 | 0.0 | 0.00 | 0.00 | 0.00 | 91 | 1401.7 |
| 20260509064741 | 49 | 331 | 0.0 | 0.0 | 0.00 | 0.00 | 0.00 | 91 | 1401.8 |
| 20260509064242 | 50 | 331 | 0.0 | 0.0 | 0.00 | 0.00 | 0.00 | 91 | 1401.8 |
| 20260509062738 | 50 | 331 | 1.0 | 3.0 | 0.00 | 0.00 | 0.00 | 91 | 1402.1 |
| 20260509062238 | 50 | 331 | 1.0 | 3.0 | 0.00 | 0.00 | 0.00 | 91 | 1402.2 |
| 20260509061235 | 50 | 342 | 0.0 | 2.0 | 0.00 | 0.00 | 0.00 | 90 | 1402.5 |
| 20260509055736 | 50 | 345 | 0.0 | 3.0 | 0.00 | 0.00 | 0.00 | 91 | 1403.0 |
| 20260509055237 | 50 | 344 | 0.0 | 3.0 | 0.00 | 0.00 | 0.00 | 91 | 1403.2 |
| 20260509054737 | 50 | 349 | 0.0 | 0.0 | 0.00 | 0.00 | 0.00 | 91 | 1403.2 |
| 20260509054236 | 50 | 349 | 0.0 | 0.0 | 0.00 | 0.00 | 0.00 | 91 | 1403.4 |
| 20260509053736 | 50 | 349 | 0.0 | 0.0 | 0.00 | 0.00 | 0.00 | 91 | 1403.4 |
| 20260509053236 | 50 | 349 | 0.0 | 0.0 | 0.00 | 0.00 | 0.00 | 90 | 1403.6 |
| 20260509052735 | 50 | 349 | 0.0 | 0.0 | 0.00 | 0.00 | 0.00 | 90 | 1403.7 |
| 20260509052236 | 50 | 349 | 0.0 | 0.0 | 0.00 | 0.00 | 0.00 | 90 | 1403.7 |
| 20260509051736 | 50 | 349 | 0.0 | 0.0 | 0.00 | 0.00 | 0.00 | 90 | 1403.7 |
| 20260509051235 | 50 | 349 | 0.0 | 0.0 | 0.00 | 0.00 | 0.00 | 89 | 1403.8 |
| 20260509050736 | 50 | 349 | 0.0 | 0.0 | 0.00 | 0.00 | 0.00 | 89 | 1404.0 |
| 20260509050235 | 51 | 349 | 0.0 | 0.0 | 0.00 | 0.00 | 0.00 | 89 | 1404.0 |
| 20260509045737 | 51 | 349 | 0.0 | 0.0 | 0.00 | 0.00 | 0.00 | 89 | 1404.0 |
| 20260509045235 | 51 | 349 | 0.0 | 1.0 | 0.00 | 0.00 | 0.00 | 89 | 1404.1 |
| 20260509044736 | 51 | 349 | 0.0 | 2.0 | 0.00 | 0.00 | 0.00 | 89 | 1404.1 |
| 20260509043737 | 51 | 335 | 0.0 | 0.0 | 0.00 | 0.00 | 0.00 | 89 | 1404.1 |
| 20260509043234 | 51 | 335 | 1.0 | 3.0 | 0.00 | 0.00 | 0.00 | 89 | 1404.1 |
| 20260509042734 | 51 | 335 | 1.0 | 3.0 | 0.00 | 0.00 | 0.00 | 89 | 1404.2 |
| 20260509042228 | 51 | 342 | 0.0 | 2.0 | 0.00 | 0.00 | 0.00 | 88 | 1404.2 |
| 20260509041722 | 51 | 57 | 0.0 | 0.0 | 0.00 | 0.00 | 0.00 | 88 | 1404.4 |
| 20260509041219 | 51 | 57 | 0.0 | 0.0 | 0.00 | 0.00 | 0.00 | 88 | 1404.4 |
| 20260509040719 | 51 | 57 | 0.0 | 0.0 | 0.00 | 0.00 | 0.00 | 88 | 1404.5 |
| 20260509040219 | 51 | 57 | 0.0 | 0.0 | 0.00 | 0.00 | 0.00 | 88 | 1404.5 |
| 20260509035717 | 51 | 57 | 0.0 | 0.0 | 0.00 | 0.00 | 0.00 | 87 | 1404.7 |
| 20260509035214 | 51 | 57 | 0.0 | 1.0 | 0.00 | 0.00 | 0.00 | 88 | 1404.8 |
| 20260509034209 | 52 | 77 | 1.0 | 3.0 | 0.00 | 0.00 | 0.00 | 88 | 1404.7 |
| 20260509033707 | 52 | 0 | 1.0 | 3.0 | 0.00 | 0.00 | 0.00 | 87 | 1404.5 |
| 20260509033208 | 52 | 330 | 1.0 | 3.0 | 0.00 | 0.00 | 0.00 | 87 | 1404.5 |
| 20260509032208 | 52 | 34 | 1.0 | 4.0 | 0.00 | 0.00 | 0.00 | 87 | 1404.8 |
| 20260509031708 | 52 | 22 | 1.0 | 4.0 | 0.00 | 0.00 | 0.00 | 87 | 1404.9 |
| 20260509031208 | 52 | 27 | 1.0 | 3.0 | 0.00 | 0.00 | 0.00 | 88 | 1405.1 |
| 20260509030206 | 51 | 46 | 1.0 | 3.0 | 0.00 | 0.00 | 0.00 | 88 | 1405.2 |
| 20260509025706 | 51 | 34 | 1.0 | 3.0 | 0.00 | 0.00 | 0.00 | 88 | 1405.2 |
| 20260509025206 | 51 | 76 | 1.0 | 3.0 | 0.00 | 0.00 | 0.00 | 88 | 1405.2 |
| 20260509024706 | 51 | 65 | 0.0 | 2.0 | 0.00 | 0.00 | 0.00 | 88 | 1405.3 |
| 20260509023700 | 52 | 355 | 0.0 | 2.0 | 0.00 | 0.00 | 0.00 | 88 | 1405.3 |
| 20260509022648 | 52 | 12 | 0.0 | 2.0 | 0.00 | 0.00 | 0.00 | 87 | 1405.1 |
| 20260509021636 | 52 | 344 | 1.0 | 4.0 | 0.00 | 0.00 | 0.00 | 87 | 1404.9 |
| 20260509021129 | 52 | 327 | 0.0 | 4.0 | 0.00 | 0.00 | 0.00 | 86 | 1404.8 |
| 20260509020624 | 52 | 5 | 0.0 | 0.0 | 0.00 | 0.00 | 0.00 | 86 | 1404.8 |
| 20260509020118 | 52 | 5 | 0.0 | 2.0 | 0.00 | 0.00 | 0.00 | 85 | 1404.8 |
| 20260509015106 | 52 | 9 | 0.0 | 1.0 | 0.00 | 0.00 | 0.00 | 84 | 1404.5 |
| 20260509014601 | 52 | 9 | 0.0 | 2.0 | 0.00 | 0.00 | 0.00 | 83 | 1404.4 |
| 20260509014053 | 52 | 9 | 1.0 | 3.0 | 0.00 | 0.00 | 0.00 | 82 | 1404.5 |
| 20260509013548 | 53 | 345 | 0.0 | 3.0 | 0.00 | 0.00 | 0.00 | 83 | 1404.5 |
| 20260509013042 | 53 | 339 | 0.0 | 1.0 | 0.00 | 0.00 | 0.00 | 81 | 1404.2 |
| 20260509012535 | 53 | 339 | 0.0 | 0.0 | 0.00 | 0.00 | 0.00 | 81 | 1404.1 |
| 20260509011524 | 53 | 339 | 0.0 | 2.0 | 0.00 | 0.00 | 0.00 | 80 | 1404.1 |
| 20260509011018 | 53 | 339 | 0.0 | 2.0 | 0.00 | 0.00 | 0.00 | 80 | 1404.0 |
| 20260509010512 | 53 | 339 | 0.0 | 3.0 | 0.00 | 0.00 | 0.00 | 80 | 1404.0 |
| 20260509010006 | 53 | 339 | 0.0 | 3.0 | 0.00 | 0.00 | 0.00 | 79 | 1403.8 |
| 20260509005459 | 54 | 325 | 0.0 | 1.0 | 0.00 | 0.00 | 0.00 | 77 | 1403.8 |
| 20260509004954 | 54 | 46 | 0.0 | 0.0 | 0.00 | 0.00 | 0.00 | 76 | 1403.8 |
| 20260509004448 | 54 | 46 | 0.0 | 0.0 | 0.00 | 0.00 | 0.00 | 75 | 1403.8 |
| 20260509003942 | 55 | 46 | 0.0 | 0.0 | 0.00 | 0.00 | 0.00 | 74 | 1403.8 |
| 20260509003436 | 55 | 46 | 0.0 | 0.0 | 0.00 | 0.00 | 0.00 | 74 | 1403.8 |
| 20260509002930 | 55 | 46 | 0.0 | 0.0 | 0.00 | 0.00 | 0.00 | 73 | 1404.1 |
| 20260509002424 | 56 | 46 | 0.0 | 3.0 | 0.00 | 0.00 | 0.00 | 72 | 1404.0 |
| 20260509001918 | 56 | 27 | 1.0 | 3.0 | 0.00 | 0.00 | 0.00 | 68 | 1403.8 |
| 20260509001412 | 56 | 24 | 1.0 | 3.0 | 0.00 | 0.00 | 0.00 | 68 | 1404.0 |
| 20260509000359 | 57 | 42 | 2.0 | 4.0 | 0.00 | 0.00 | 0.00 | 66 | 1404.0 |
| 20260508235854 | 57 | 31 | 1.0 | 3.0 | 0.00 | 0.00 | 0.00 | 66 | 1403.8 |
| 20260508235348 | 57 | 344 | 1.0 | 3.0 | 0.00 | 0.00 | 0.00 | 66 | 1403.8 |
| 20260508234848 | 57 | 36 | 1.0 | 3.0 | 0.00 | 0.00 | 0.00 | 65 | 1404.0 |
| 20260508234345 | 57 | 5 | 1.0 | 5.0 | 0.00 | 0.00 | 0.00 | 65 | 1404.0 |
| 20260508233343 | 57 | 33 | 3.0 | 5.0 | 0.00 | 0.00 | 0.00 | 65 | 1403.7 |
| 20260508232844 | 58 | 27 | 2.0 | 5.0 | 0.00 | 0.00 | 0.00 | 65 | 1403.8 |
| 20260508232342 | 58 | 27 | 2.0 | 4.0 | 0.00 | 0.00 | 0.00 | 64 | 1404.0 |
| 20260508231842 | 58 | 22 | 1.0 | 4.0 | 0.00 | 0.00 | 0.00 | 65 | 1403.7 |
| 20260508231342 | 58 | 24 | 1.0 | 4.0 | 0.00 | 0.00 | 0.00 | 67 | 1403.7 |
| 20260508230840 | 59 | 27 | 1.0 | 4.0 | 0.00 | 0.00 | 0.00 | 62 | 1403.7 |
| 20260508230340 | 59 | 26 | 2.0 | 4.0 | 0.00 | 0.00 | 0.00 | 64 | 1403.7 |
| 20260508225840 | 59 | 10 | 2.0 | 4.0 | 0.00 | 0.00 | 0.00 | 62 | 1403.8 |
| 20260508225338 | 59 | 13 | 2.0 | 4.0 | 0.00 | 0.00 | 0.00 | 62 | 1403.8 |
| 20260508224837 | 59 | 24 | 2.0 | 5.0 | 0.00 | 0.00 | 0.00 | 60 | 1403.7 |
| 20260508224338 | 59 | 0 | 1.0 | 5.0 | 0.00 | 0.00 | 0.00 | 61 | 1403.7 |
| 20260508223837 | 59 | 22 | 0.0 | 3.0 | 0.00 | 0.00 | 0.00 | 63 | 1403.8 |
| 20260508223337 | 59 | 34 | 0.0 | 2.0 | 0.00 | 0.00 | 0.00 | 63 | 1403.7 |
| 20260508222836 | 59 | 32 | 0.0 | 2.0 | 0.00 | 0.00 | 0.00 | 64 | 1403.8 |
| 20260508222333 | 59 | 40 | 0.0 | 2.0 | 0.00 | 0.00 | 0.00 | 62 | 1403.7 |
| 20260508221834 | 59 | 47 | 0.0 | 2.0 | 0.00 | 0.00 | 0.00 | 62 | 1403.8 |
| 20260508220821 | 59 | 38 | 0.0 | 2.0 | 0.00 | 0.00 | 0.00 | 61 | 1404.0 |
| 20260508220315 | 59 | 28 | 0.0 | 2.0 | 0.00 | 0.00 | 0.00 | 60 | 1404.0 |
| 20260508215809 | 60 | 67 | 0.0 | 2.0 | 0.00 | 0.00 | 0.00 | 62 | 1404.1 |
| 20260508215306 | 60 | 90 | 1.0 | 3.0 | 0.00 | 0.00 | 0.00 | 58 | 1404.1 |
| 20260508214759 | 60 | 15 | 1.0 | 3.0 | 0.00 | 0.00 | 0.00 | 56 | 1404.2 |
| 20260508213759 | 59 | 129 | 2.0 | 4.0 | 0.00 | 0.00 | 0.00 | 63 | 1404.1 |
| 20260508213300 | 59 | 105 | 1.0 | 4.0 | 0.00 | 0.00 | 0.00 | 60 | 1404.4 |
| 20260508212759 | 59 | 118 | 1.0 | 4.0 | 0.00 | 0.00 | 0.00 | 63 | 1404.4 |
| 20260508212257 | 59 | 88 | 1.0 | 4.0 | 0.00 | 0.00 | 0.00 | 63 | 1404.7 |
| 20260508211758 | 58 | 66 | 0.0 | 2.0 | 0.00 | 0.00 | 0.00 | 62 | 1404.8 |
| 20260508210758 | 58 | 271 | 0.0 | 0.0 | 0.00 | 0.00 | 0.00 | 65 | 1405.1 |
| 20260508210257 | 58 | 271 | 0.0 | 0.0 | 0.00 | 0.00 | 0.00 | 70 | 1404.9 |
| 20260508205757 | 58 | 271 | 0.0 | 0.0 | 0.00 | 0.00 | 0.00 | 67 | 1404.9 |
| 20260508205254 | 58 | 271 | 0.0 | 0.0 | 0.00 | 0.00 | 0.00 | 67 | 1404.9 |
| 20260508204753 | 58 | 271 | 0.0 | 0.0 | 0.00 | 0.00 | 0.00 | 69 | 1405.1 |
| 20260508204253 | 58 | 271 | 0.0 | 0.0 | 0.00 | 0.00 | 0.00 | 76 | 1405.2 |
| 20260508203752 | 57 | 271 | 0.0 | 0.0 | 0.00 | 0.00 | 0.00 | 75 | 1405.3 |
| 20260508203252 | 57 | 271 | 0.0 | 0.0 | 0.00 | 0.00 | 0.00 | 64 | 1405.3 |
| 20260508202752 | 57 | 271 | 0.0 | 1.0 | 0.00 | 0.00 | 0.00 | 64 | 1405.6 |
| 20260508202253 | 57 | 271 | 0.0 | 1.0 | 0.00 | 0.00 | 0.00 | 64 | 1405.7 |
| 20260508201753 | 57 | 271 | 0.0 | 2.0 | 0.00 | 0.00 | 0.00 | 65 | 1405.9 |
| 20260508201254 | 57 | 247 | 1.0 | 3.0 | 0.00 | 0.00 | 0.00 | 63 | 1406.0 |
| 20260508200754 | 57 | 215 | 1.0 | 3.0 | 0.00 | 0.00 | 0.00 | 61 | 1406.0 |
| 20260508200252 | 57 | 286 | 2.0 | 6.0 | 0.00 | 0.00 | 0.00 | 60 | 1406.1 |
| 20260508195752 | 57 | 251 | 2.0 | 7.0 | 0.00 | 0.00 | 0.00 | 60 | 1406.3 |
| 20260508195253 | 58 | 238 | 3.0 | 7.0 | 0.00 | 0.00 | 0.00 | 60 | 1406.4 |
| 20260508194254 | 58 | 248 | 4.0 | 11.0 | 0.00 | 0.00 | 0.00 | 59 | 1406.5 |
| 20260508193752 | 58 | 244 | 4.0 | 11.0 | 0.00 | 0.00 | 0.00 | 57 | 1406.4 |
| 20260508193253 | 58 | 240 | 3.0 | 9.0 | 0.00 | 0.00 | 0.00 | 60 | 1406.5 |
| 20260508192752 | 58 | 232 | 3.0 | 9.0 | 0.00 | 0.00 | 0.00 | 57 | 1406.5 |
| 20260508192247 | 59 | 265 | 3.0 | 9.0 | 0.00 | 0.00 | 0.00 | 59 | 1406.7 |
| 20260508190229 | 59 | 290 | 5.0 | 10.0 | 0.00 | 0.00 | 0.00 | 58 | 1406.9 |
| 20260508185726 | 59 | 246 | 4.0 | 11.0 | 0.00 | 0.00 | 0.00 | 56 | 1406.9 |
| 20260508185227 | 59 | 257 | 6.0 | 11.0 | 0.00 | 0.00 | 0.00 | 56 | 1406.9 |
| 20260508184727 | 59 | 240 | 7.0 | 17.0 | 0.00 | 0.00 | 0.00 | 54 | 1406.9 |
| 20260508183724 | 59 | 262 | 8.0 | 16.0 | 0.00 | 0.00 | 0.00 | 54 | 1406.8 |
| 20260508183225 | 59 | 216 | 7.0 | 16.0 | 0.00 | 0.00 | 0.00 | 54 | 1406.7 |
| 20260508182224 | 60 | 171 | 5.0 | 14.0 | 0.00 | 0.00 | 0.00 | 55 | 1406.7 |
| 20260508181722 | 60 | 231 | 5.0 | 14.0 | 0.00 | 0.00 | 0.00 | 57 | 1406.5 |
| 20260508181220 | 60 | 213 | 8.0 | 19.0 | 0.00 | 0.00 | 0.00 | 54 | 1406.5 |
| 20260508180721 | 60 | 242 | 9.0 | 19.0 | 0.00 | 0.00 | 0.00 | 55 | 1406.5 |
| 20260508180220 | 60 | 238 | 9.0 | 17.0 | 0.00 | 0.00 | 0.00 | 56 | 1406.4 |
| 20260508175720 | 60 | 227 | 8.0 | 18.0 | 0.00 | 0.00 | 0.00 | 54 | 1406.5 |
| 20260508175221 | 60 | 214 | 7.0 | 18.0 | 0.00 | 0.00 | 0.00 | 54 | 1406.7 |
| 20260508174721 | 60 | 215 | 6.0 | 16.0 | 0.00 | 0.00 | 0.00 | 53 | 1406.8 |
| 20260508174221 | 60 | 237 | 8.0 | 19.0 | 0.00 | 0.00 | 0.00 | 54 | 1406.8 |